User: anonymous   Login
Location: Albany
(35.0170°S, 117.8920°E)
Time: 07:53:36
(UTC+08:00)
Language:

A-11 Canister half - Orbit

View from above orbital plane
View from above orbital plane
View from above satellite
View from above satellite

Ground track
Ground track

The orbit data is extracted from the following two-line orbital elements,

1 00051U 60009C   21129.53395653 -.00000030  00000-0  54240-3 0  9997
2 00051  47.2141  58.6087 0107162  51.4619 309.5718 12.18275220703849
Epoch (UTC): 09 May 2021 12:48:53
Eccentricity: 0.0107162
inclination: 47.2141°
perigee height: 1514 km
apogee height: 1685 km
right ascension of ascending node: 58.6087°
argument of perigee: 51.4619°
revolutions per day: 12.18275220
mean anomaly at epoch: 309.5718°
orbit number at epoch: 70384

The dashed part of the orbit path shows where the satellite is in the earth's shadow,  

DLR